This demonstration page uses our WeatherBlox Daily Observations layout. Learn more.

Left ArrowRight Arrow

Hourly Observations for June 24, 2016

Temp ( °F °C ) Dew Point ( °F °C ) Humidity (%) Winds ( mph kmh ) Pressure ( in mb ) Visibility ( mi km ) Precip ( " mm )
12:54 am 00:54 Clear 66 18.9 62 16.7 87 87 N 7 11 30 1016 10 16.0934 0 0
1:54 am 01:54 Clear 66 18.9 62 16.7 87 87 NE 3 6 29.99 1016 10 16.0934 0 0
2:54 am 02:54 Clear 68 20 62 16.7 81 81 Calm 29.98 1015 10 16.0934 0 0
3:54 am 03:54 Clear 65 18.3 61 16.1 87 87 NNE 5 7 29.98 1015 10 16.0934 0 0
4:54 am 04:54 Clear 63 17.2 61 16.1 93 93 N 7 11 29.96 1015 10 16.0934 0 0
5:54 am 05:54 Clear 65 18.3 61 16.1 87 87 Calm 29.98 1015 10 16.0934 0 0
6:54 am 06:54 Sunny 69 20.6 63 17.2 81 81 ESE 5 7 29.97 1015 10 16.0934 0 0
7:54 am 07:54 Partly Cloudy 74 23.3 63 17.2 69 69 SE 9 15 29.96 1015 10 16.0934 0 0
8:54 am 08:54 Cloudy 76 24.4 64 17.8 67 67 SE 9 15 29.98 1015 10 16.0934 0 0
9:54 am 09:54 Partly Cloudy 80 26.7 65 18.3 60 60 SE 14 22 29.96 1015 10 16.0934 0 0
10:54 am 10:54 Sunny 83 28.3 67 19.4 59 59 SSE 12 19 29.95 1014 10 16.0934 0 0
11:54 am 11:54 Mostly Sunny 86 30 69 20.6 57 57 S 18 30 29.93 1014 10 16.0934 0 0
12:54 pm 12:54 Mostly Cloudy 88 31.1 70 21.1 55 55 S 17 28 29.93 1014 10 16.0934 0 0
1:54 pm 13:54 Mostly Sunny 90 32.2 71 21.7 54 54 S 15 24 29.91 1013 10 16.0934 0 0
2:54 pm 14:54 Mostly Sunny 91 32.8 71 21.7 52 52 S 15 24 29.89 1012 10 16.0934 0 0
3:54 pm 15:54 Sunny 92 33.3 70 21.1 49 49 S 16 26 29.87 1012 10 16.0934 0 0
4:54 pm 16:54 Sunny 92 33.3 67 19.4 44 44 SSE 20 31 29.85 1011 10 16.0934 0 0
5:54 pm 17:54 Sunny 91 32.8 65 18.3 42 42 S 21 33 29.84 1011 10 16.0934 0 0
6:54 pm 18:54 Sunny 89 31.7 67 19.4 48 48 S 15 24 29.84 1011 10 16.0934 0 0
7:54 pm 19:54 Sunny 88 31.1 69 20.6 54 54 S 13 20 29.84 1011 10 16.0934 0 0
8:54 pm 20:54 Sunny 85 29.4 68 20 57 57 S 12 19 29.85 1011 10 16.0934 0 0
9:54 pm 21:54 Clear 82 27.8 68 20 63 63 SSE 12 19 29.86 1011 10 16.0934 0 0
10:54 pm 22:54 Clear 81 27.2 67 19.4 62 62 SSE 13 20 29.88 1012 10 16.0934 0 0
11:54 pm 23:54 Cloudy 80 26.7 67 19.4 64 64 SSE 12 19 29.87 1012 10 16.0934 0 0

Powered by AerisWeather